Location: İstanbul
(41.0082°N, 28.9784°E)
Time: 20:20:24
(UTC+03:00)

ITUPSAT 1 - Pass Details

Date: 27 April 2024
Orbit: 694 x 707 km, 98.5° (Epoch: 29 May)

Event Time Altitude Azimuth Distance (km) Brightness Sun altitude
Rises 22:44:19 0° 19° (NNE) 3,082 ? -26.3°
Reaches altitude 10° 22:46:38 10° 24° (NNE) 2,160 ? -26.6°
Enters shadow 22:49:26 32° 45° (NE) 1,178 ? -26.9°
